Location: Unspecified
(64.9000°N, 0.0000°E)
Time: 01:19:45
(UTC+00:00)

SR - All Passes

Search period start: 25 June 2019 00:00
Search period end: 05 July 2019 00:00
Orbit: 582 x 874 km, 66.7° (Epoch: 24 June)

Date Brightness Start Highest point End Pass type
(mag) Time Alt. Az. Time Alt. Az. Time Alt. Az.
25 Jun - 02:29:55 10° SE 02:31:47 13° ESE 02:33:41 10° E daylight
25 Jun - 04:08:40 10° SSW 04:12:42 40° SE 04:16:58 10° ENE daylight
25 Jun - 05:50:07 10° WSW 05:54:29 88° NNW 05:59:11 10° ENE daylight
25 Jun - 07:32:19 10° W 07:36:47 71° N 07:41:35 10° E daylight
25 Jun - 09:14:26 10° WNW 09:19:00 81° SSW 09:23:58 10° ESE daylight
25 Jun - 10:56:30 10° WNW 11:00:43 34° SW 11:05:15 10° SSE daylight
25 Jun - 12:40:16 10° W 12:41:38 11° WSW 12:43:01 10° SW daylight
26 Jun - 03:19:40 10° S 03:23:21 28° SE 03:27:12 10° ENE daylight
26 Jun - 05:00:32 10° SW 05:04:52 75° SSE 05:09:30 10° ENE daylight
26 Jun - 06:42:36 10° W 06:47:02 71° N 06:51:48 10° E daylight
26 Jun - 08:24:47 10° WNW 08:29:21 84° NNE 08:34:17 10° ESE daylight
26 Jun - 10:06:49 10° WNW 10:11:16 48° SW 10:16:06 10° SSE daylight
26 Jun - 11:49:24 10° WNW 11:52:29 17° WSW 11:55:43 10° SSW daylight
27 Jun - 02:31:03 10° SSE 02:34:05 19° ESE 02:37:14 10° ENE daylight
27 Jun - 04:11:05 10° SW 04:15:18 56° SE 04:19:49 10° ENE daylight
27 Jun - 05:52:54 10° W 05:57:18 77° NNW 06:02:03 10° ENE daylight
27 Jun - 07:35:07 10° WNW 07:39:37 75° N 07:44:31 10° E daylight
27 Jun - 09:17:09 10° WNW 09:21:44 65° SW 09:26:42 10° SE daylight
27 Jun - 10:59:22 10° WNW 11:03:14 25° SW 11:07:20 10° S daylight
28 Jun - 01:43:15 10° SE 01:44:58 12° ESE 01:46:43 10° E daylight
28 Jun - 03:21:49 10° SSW 03:25:51 39° SE 03:30:06 10° ENE daylight
28 Jun - 05:03:14 10° WSW 05:07:37 89° NNW 05:12:20 10° ENE daylight
28 Jun - 06:45:25 10° W 06:49:53 70° N 06:54:44 10° E daylight
28 Jun - 08:27:32 10° WNW 08:32:08 82° SSW 08:37:07 10° ESE daylight
28 Jun - 10:09:35 10° WNW 10:13:53 36° SW 10:18:28 10° SSE daylight
28 Jun - 11:53:08 10° W 11:54:49 12° WSW 11:56:33 10° SW daylight
29 Jun - 02:32:51 10° S 02:36:30 27° SE 02:40:19 10° ENE daylight
29 Jun - 04:13:39 10° SW 04:18:00 73° SSE 04:22:38 10° ENE daylight
29 Jun - 05:55:42 10° W 06:00:09 72° N 06:04:57 10° E daylight
29 Jun - 07:37:53 10° WNW 07:42:27 83° NNE 07:47:26 10° ESE daylight
29 Jun - 09:19:55 10° WNW 09:24:25 49° SW 09:29:18 10° SSE daylight
29 Jun - 11:02:27 10° WNW 11:05:40 18° WSW 11:09:02 10° SSW daylight
30 Jun - 01:44:17 10° SSE 01:47:15 18° ESE 01:50:20 10° ENE daylight
30 Jun - 03:24:13 10° SW 03:28:26 54° SE 03:32:57 10° ENE daylight
30 Jun - 05:05:59 10° WSW 05:10:25 78° NNW 05:15:12 10° ENE daylight
30 Jun - 06:48:13 10° WNW 06:52:45 74° N 06:57:39 10° E daylight
30 Jun - 08:30:16 10° WNW 08:34:52 66° SSW 08:39:53 10° SE daylight
30 Jun - 10:12:28 10° WNW 10:16:24 26° SW 10:20:35 10° S daylight
01 Jul - 00:56:35 10° SE 00:58:08 12° ESE 00:59:43 10° E daylight
01 Jul - 02:34:58 10° SSW 02:38:59 38° SE 02:43:15 10° ENE daylight
01 Jul - 04:16:20 10° WSW 04:20:44 89° SSE 04:25:28 10° ENE daylight
01 Jul - 05:58:31 10° W 06:03:01 70° N 06:07:52 10° E daylight
01 Jul - 07:40:39 10° WNW 07:45:16 84° SSW 07:50:17 10° ESE daylight
01 Jul - 09:22:41 10° WNW 09:27:01 37° SW 09:31:41 10° SSE daylight
01 Jul - 11:06:02 10° W 11:08:00 12° WSW 11:10:01 10° SW daylight
02 Jul - 01:46:02 10° S 01:49:39 26° SE 01:53:27 10° ENE daylight
02 Jul - 03:26:46 10° SW 03:31:07 72° SSE 03:35:47 10° ENE daylight
02 Jul - 05:08:48 10° W 05:13:16 72° N 05:18:06 10° ENE daylight
02 Jul - 06:50:59 10° WNW 06:55:35 82° NNE 07:00:34 10° ESE daylight
02 Jul - 08:33:01 10° WNW 08:37:33 51° SW 08:42:29 10° SE daylight
02 Jul - 10:15:30 10° WNW 10:18:50 19° WSW 10:22:20 10° SSW daylight
03 Jul - 00:57:31 10° SSE 01:00:25 18° ESE 01:03:26 10° ENE daylight
03 Jul - 02:37:20 10° SW 02:41:35 53° SE 02:46:06 10° ENE daylight
03 Jul - 04:19:06 10° WSW 04:23:32 79° NNW 04:28:21 10° ENE daylight
03 Jul - 06:01:19 10° WNW 06:05:52 74° N 06:10:48 10° E daylight
03 Jul - 07:43:23 10° WNW 07:48:01 68° SSW 07:53:03 10° SE daylight
03 Jul - 09:25:33 10° WNW 09:29:34 27° SW 09:33:50 10° S daylight
04 Jul - 00:09:57 10° SE 00:11:19 11° ESE 00:12:42 10° E daylight
04 Jul - 01:48:08 10° SSW 01:52:08 37° SE 01:56:23 10° ENE daylight
04 Jul - 03:29:27 10° WSW 03:33:52 88° SSE 03:38:37 10° ENE daylight
04 Jul - 05:11:37 10° W 05:16:08 71° N 05:21:02 10° E daylight
04 Jul - 06:53:45 10° WNW 06:58:23 85° SSW 07:03:27 10° ESE daylight
04 Jul - 08:35:48 10° WNW 08:40:11 38° SW 08:44:54 10° SSE daylight
04 Jul - 10:18:59 10° W 10:21:11 13° WSW 10:23:27 10° SW daylight
